This demonstration page uses our WeatherBlox Daily Observations layout. Learn more.

Left ArrowRight Arrow

Hourly Observations for May 30, 2017

Temp ( °F °C ) Dew Point ( °F °C ) Humidity (%) Winds ( mph kmh ) Pressure ( in mb ) Visibility ( mi km ) Precip ( " mm )
12:54 am 00:54 Clear 49 9.4 44 6.7 83 83 Calm 30.06 1018 10 16.0934 0 0
1:54 am 01:54 Clear 50 10 44 6.7 80 80 Calm 30.05 1018 10 16.0934 0 0
2:54 am 02:54 Clear 48 8.9 43 6.1 83 83 Calm 30.05 1018 10 16.0934 0 0
3:54 am 03:54 Clear 48 8.9 43 6.1 83 83 S 5 7 30.05 1018 10 16.0934 0 0
4:54 am 04:54 Mostly Clear 49 9.4 43 6.1 80 80 Calm 30.06 1018 10 16.0934 0 0
5:54 am 05:54 Mostly Cloudy 47 8.3 42 5.6 83 83 Calm 30.07 1018 10 16.0934 0 0
6:54 am 06:54 Mostly Cloudy 53 11.7 46 7.8 77 77 Calm 30.07 1018 10 16.0934 0 0
7:54 am 07:54 Cloudy 57 13.9 44 6.7 62 62 WSW 3 6 30.07 1018 10 16.0934 0 0
8:54 am 08:54 Mostly Cloudy 64 17.8 45 7.2 50 50 WSW 6 9 30.06 1018 10 16.0934 0 0
9:54 am 09:54 Sunny 72 22.2 44 6.7 37 37 WSW 10 17 30.06 1018 10 16.0934 0 0
10:54 am 10:54 Sunny 76 24.4 42 5.6 30 30 NW 8 13 30.05 1018 10 16.0934 0 0
11:54 am 11:54 Sunny 77 25 38 3.3 24 24 NW 13 20 30.04 1017 10 16.0934 0 0
12:54 pm 12:54 Sunny 78 25.6 37 2.8 23 23 NNW 16 26 30.03 1017 10 16.0934 0 0
1:54 pm 13:54 Sunny 80 26.7 36 2.2 20 20 WNW 10 17 30.01 1016 10 16.0934 0 0
2:54 pm 14:54 Sunny 81 27.2 37 2.8 21 21 NNW 17 28 29.99 1016 10 16.0934 0 0
3:54 pm 15:54 Sunny 81 27.2 36 2.2 20 20 NW 18 30 29.98 1015 10 16.0934 0 0
4:54 pm 16:54 Mostly Sunny 81 27.2 36 2.2 20 20 NW 17 28 29.98 1015 10 16.0934 0 0
5:54 pm 17:54 Mostly Sunny 82 27.8 38 3.3 21 21 W 10 17 29.97 1015 10 16.0934 0 0
6:54 pm 18:54 Mostly Sunny 81 27.2 36 2.2 20 20 NW 15 24 29.96 1014 10 16.0934 0 0
7:54 pm 19:54 Sunny 77 25 39 3.9 26 26 N 10 17 29.96 1015 10 16.0934 0 0
8:54 pm 20:54 Clear 67 19.4 43 6.1 42 42 NNE 7 11 29.97 1015 10 16.0934 0 0
9:54 pm 21:54 Clear 62 16.7 43 6.1 50 50 N 6 9 29.98 1015 10 16.0934 0 0
10:54 pm 22:54 Clear 59 15 45 7.2 60 60 N 8 13 30.01 1016 10 16.0934 0 0
11:54 pm 23:54 Clear 59 15 42 5.6 54 54 N 3 6 30.03 1017 10 16.0934 0 0

Powered by AerisWeather